SCOUT X-4 R/B, 809

Orbit data source: Space-Track

SCOUT X-4 R/B, 809 is space debris in LEO originally from a launch on Thu, 04 Jun 1964 UTC launched from the Air Force Western Test Range (AFWTR). Debris objects in space refer to the collection of defunct objects orbiting the Earth. Examples of debris include non-operational satellites, rocket bodies, and fragments generated from explosions, collisions, or faulty payload assembly.

Loading next visibility...
SCOUT X-4 R/B details
Identifier
809, 1964-026D
Orbit
LEO
Last TLE update1 day ago
Origin
Flag of USNASA LaRC (US)
ManufacturerABL
MissionSpacecraft
Bus & MotorALTAIR, Unknown motor
Mass33 kg wet, 33 kg dry
Launch date (UTC)
1964-06-04 (61 years ago)
Launch vehicleUnknown
Launch site
Air Force Western Test Range (AFWTR)
Object type
Payload
Rocket body
Debris
Shape & HBRCyl, 1.5 m
Radar Cross Section0.687 m², Medium (>0.1 m² and < 1m²)

Expand to show TLE details & history

TLE from 1 day ago
0 SCOUT X-4 R/B
1 00809U 64026D   25022.25202995  .00000716  00000-0  39532-3 0  9999
2 00809  90.4622 152.0501 0037875 257.3479 102.3470 14.10406889106110
Epoch: 2025-01-22T06:02Z
Definitive object data (Epoch: 2025-01-22T06:02:55.387Z)
Latitude-0.00002°
Longitude-60.52725°
Altitude866.981 km
Speed7.416 km/s
True Right ascension10h 08m 12s
True Declination0° 00' 00"
Sunlit
Object was in full shadow at TLE epoch
Visualization TLE readout
Latitude-65.15652°
Longitude-59.46525°
Altitude862.454 km
Speed7.431 km/s
Apparent Right ascension05h 39m 08s
Apparent Declination-64° 14' 58"
Sunlit
Object is in daylight
Visualization observer readout
Local Sidereal Time15:17:45
Azimuth208.473° SW
Elevation-58.184°
Doppler factor1
Orbital elements
Apogee altitude882.338 km
Perigee altitude827.547 km
Semi-major axis7,233.079 km
Eccentricity0.0037875
Inclination90.4622°
RAAN152.0501°
Arg. of periapsis257.3479°
True anomaly102.77054°
Mean anomaly102.347°
Eccentric anomaly102.55882°
Mean motion3.52824 °/min
BSTAR0.00039532
Orbital period102.03 mins
Loading maneuver chart data...
Loading historical data...
Loading historical data...
Loading historical data...
Loading historical data...
Loading historical data...
Loading historical data...
Loading historical data...

SCOUT X-4 R/B Visibility forecast

Observer location: undefined°, undefined

Span
Click to sort rows by Start time (UTC) header in descending order
Start Az.
Max El. time (UTC)
Max El. Az.
Max El.
End time (UTC)
End Az.
9 mins2025-01-23 20:05:34.570Z22.206° NNE2025-01-23 20:10:34.570Z89.096° E29.742°2025-01-23 20:14:34.570Z145.889° SSE
8 mins2025-01-23 21:48:34.570Z333.048° NNW2025-01-23 21:52:34.570Z275.221° WNW25.787°2025-01-23 21:56:34.570Z226.781° WSW
6 mins2025-01-24 07:35:34.570Z101.946° ESE2025-01-24 07:37:34.570Z75.591° E19.259°2025-01-24 07:41:34.570Z29.616° NE
9 mins2025-01-24 09:15:34.570Z202.777° SW2025-01-24 09:19:34.570Z288.012° WNW37.731°2025-01-24 09:24:34.570Z346.813° N
|